Date,TemperatureHighF,TemperatureAvgF,TemperatureLowF,DewpointHighF,DewpointAvgF,DewpointLowF,HumidityHigh,HumidityAvg,HumidityLow,PressureMaxIn,PressureMinIn,WindSpeedMaxMPH,WindSpeedAvgMPH,GustSpeedMaxMPH,PrecipitationSumIn
2013-1-1,63.1,47.1,39.7,44.7,36.9,32.0,86,69,45,30.00,29.91,8,2,8,0.00
2013-1-2,65.5,45.7,36.1,42.4,34.1,30.4,82,66,37,29.94,29.85,5,1,6,0.00
2013-1-3,64.9,45.3,36.9,45.8,35.9,31.5,85,71,42,29.97,29.85,5,1,5,0.00
2013-1-4,67.8,48.5,39.4,43.4,37.2,34.6,85,67,37,29.97,29.88,6,1,6,0.00
2013-1-5,56.5,49.1,41.2,48.8,43.3,34.7,91,81,71,29.94,29.76,8,1,9,0.00
2013-1-6,53.8,48.4,43.2,48.9,45.1,40.0,94,88,80,29.91,29.74,10,2,11,0.12
2013-1-7,66.4,50.6,41.5,54.7,45.2,39.4,96,83,58,29.97,29.85,4,1,4,0.00
2013-1-8,70.7,52.5,44.4,56.3,45.5,41.1,95,79,48,29.94,29.82,4,0,6,0.00
2013-1-9,57.6,48.7,44.4,50.4,43.9,37.7,93,84,74,29.85,29.71,20,3,20,0.05
2013-1-10,59.2,46.9,41.7,40.8,36.4,32.6,83,68,46,29.91,29.76,18,5,18,0.00
2013-1-11,60.4,47.3,38.5,41.4,35.9,30.2,78,65,47,29.97,29.82,13,3,14,0.00
2013-1-12,61.7,44.2,37.4,38.2,32.5,23.8,86,66,34,29.97,29.85,6,1,6,0.00
2013-1-13,60.6,42.7,33.3,34.1,27.5,22.9,75,57,34,29.97,29.88,9,1,9,0.00
2013-1-14,60.4,43.8,34.3,30.5,22.7,16.5,61,44,29,30.12,29.94,9,2,9,0.00
2013-1-15,64.6,45.4,34.9,36.8,29.1,25.6,71,55,33,30.18,30.09,6,1,6,0.00
2013-1-16,66.4,46.1,35.8,39.8,31.3,27.4,74,58,34,30.12,29.97,4,1,5,0.00
2013-1-17,70.3,49.8,38.5,40.8,34.1,29.7,72,57,33,30.00,29.85,8,1,8,0.00
2013-1-18,72.1,51.7,40.3,43.0,35.4,30.2,72,56,32,29.94,29.82,7,1,7,0.00
2013-1-19,72.1,52.0,39.4,42.6,34.9,29.2,73,54,32,29.97,29.85,7,1,7,0.00
2013-1-20,73.2,51.7,40.5,43.1,35.2,31.2,77,56,30,29.94,29.82,6,1,8,0.00
2013-1-21,72.9,51.9,40.1,46.9,36.0,30.7,96,57,33,29.91,29.79,7,1,7,0.00
2013-1-22,70.9,53.1,43.2,44.4,39.0,34.9,73,60,35,29.82,29.71,6,1,6,0.00
2013-1-23,55.9,52.4,49.8,52.0,45.8,40.0,93,79,67,29.79,29.65,6,1,6,0.08
2013-1-24,58.1,54.6,51.6,54.1,51.7,49.5,96,90,82,29.91,29.76,5,1,5,0.04
2013-1-25,74.5,59.3,53.8,62.4,53.3,49.4,96,82,58,29.94,29.76,8,1,8,0.00
2013-1-26,66.6,54.5,49.3,50.6,45.2,37.8,92,73,46,29.82,29.71,18,4,19,0.00
2013-1-27,68.4,54.4,46.9,44.2,38.3,34.4,72,56,35,29.91,29.85,15,5,20,0.00
2013-1-28,68.2,54.4,46.6,47.1,41.5,37.9,76,63,42,30.03,29.88,16,6,18,0.00
2013-1-29,68.0,52.9,46.6,46.7,41.9,39.4,80,68,45,30.06,29.97,10,3,13,0.00
2013-1-30,76.1,55.5,45.3,47.5,41.7,38.9,80,63,33,30.03,29.94,7,1,7,0.00
2013-1-31,73.9,54.1,43.2,49.5,42.5,38.2,86,67,38,30.00,29.88,6,1,6,0.00